Tracking 17558 objects as of 14-February-2016
HD Live streaming from Space Station
objects crossing your sky now

TITAN 3 R/B(2)

Track TITAN 3 R/B(2) now!


NORAD ID: 20669
Int'l Code: 1990-056C
Perigee: -6,371.0 km
Apogee: -6,371.0 km
Inclination: 24.3 °
Period: 0.0 minutes
Semi major axis: 0 km
RCS: 6.947 m2 (large)
Launch date: June 23, 1990
Source: United States (US)
Launch site: AIR FORCE EASTERN TEST RANGE (AFETR)

Note: This is a ROCKET BODY
Your satellite tracking list
Your tracking list is empty





NASA's NSSDC Master Catalog

Two Line Element Set (TLE):
1 20669U 90056C   16044.59768604 +.00005619 +00000-0 +19626-2 0  9990
2 20669 024.2931 292.7820 7127068 029.3479 356.4229 2.46817167215293
Source of the keplerian elements: AFSPC

N2YO: 450